owner,sensor,date,latitude,longitude,vertical_datum,wind_speed,wind_to_direction,wind_speed_of_gust,qcFlag 
DISL,ioos:station:DISL:PPTA:1,2017-09-01T00:00:00Z,30.2791,-87.5561,0.0,3.23,239.4,-999.0,'1111122,1111122,1111122' 
DISL,ioos:station:DISL:PPTA:1,2017-09-01T00:30:00Z,30.2791,-87.5561,0.0,2.44,236.9,-999.0,'1111122,1111122,1111122' 
DISL,ioos:station:DISL:PPTA:1,2017-09-01T01:00:00Z,30.2791,-87.5561,0.0,2.86,237.9,-999.0,'1111122,1111122,1111122' 
DISL,ioos:station:DISL:PPTA:1,2017-09-01T01:30:00Z,30.2791,-87.5561,0.0,2.4,235.2,-999.0,'1111122,1111122,1111122' 
DISL,ioos:station:DISL:PPTA:1,2017-09-01T02:00:00Z,30.2791,-87.5561,0.0,2.4,231.8,-999.0,'1111122,1111122,1111122' 
DISL,ioos:station:DISL:PPTA:1,2017-09-01T02:30:00Z,30.2791,-87.5561,0.0,5.26,241.2,-999.0,'1111122,1111122,1111122' 
DISL,ioos:station:DISL:PPTA:1,2017-09-01T03:00:00Z,30.2791,-87.5561,0.0,4.93,242.4,-999.0,'1111122,1111122,1111122' 
DISL,ioos:station:DISL:PPTA:1,2017-09-01T03:30:00Z,30.2791,-87.5561,0.0,5.58,242.2,-999.0,'1111122,1111122,1111122' 
DISL,ioos:station:DISL:PPTA:1,2017-09-01T04:00:00Z,30.2791,-87.5561,0.0,5.46,243.2,-999.0,'1111122,1111122,1111122' 
DISL,ioos:station:DISL:PPTA:1,2017-09-01T04:30:00Z,30.2791,-87.5561,0.0,4.92,245.5,-999.0,'1111122,1111122,1111122' 
DISL,ioos:station:DISL:PPTA:1,2017-09-01T05:00:00Z,30.2791,-87.5561,0.0,5.56,247.7,-999.0,'1111122,1111122,1111122' 
DISL,ioos:station:DISL:PPTA:1,2017-09-01T05:30:00Z,30.2791,-87.5561,0.0,6.36,248.8,-999.0,'1111122,1111122,1111122' 
DISL,ioos:station:DISL:PPTA:1,2017-09-01T06:00:00Z,30.2791,-87.5561,0.0,5.57,247.9,-999.0,'1111122,1111122,1111122' 
DISL,ioos:station:DISL:PPTA:1,2017-09-01T06:30:00Z,30.2791,-87.5561,0.0,5.24,248.8,-999.0,'1111122,1111122,1111122' 
DISL,ioos:station:DISL:PPTA:1,2017-09-01T07:00:00Z,30.2791,-87.5561,0.0,3.4,252.6,-999.0,'1111122,1111122,1111122' 
DISL,ioos:station:DISL:PPTA:1,2017-09-01T07:30:00Z,30.2791,-87.5561,0.0,3.43,250.6,-999.0,'1111122,1111122,1111122' 
DISL,ioos:station:DISL:PPTA:1,2017-09-01T08:00:00Z,30.2791,-87.5561,0.0,2.98,248.7,-999.0,'1111122,1111122,1111122' 
DISL,ioos:station:DISL:PPTA:1,2017-09-01T08:30:00Z,30.2791,-87.5561,0.0,3.07,250.0,-999.0,'1111122,1111122,1111122' 
DISL,ioos:station:DISL:PPTA:1,2017-09-01T09:00:00Z,30.2791,-87.5561,0.0,2.68,255.0,-999.0,'1111122,1111122,1111122' 
DISL,ioos:station:DISL:PPTA:1,2017-09-01T09:30:00Z,30.2791,-87.5561,0.0,3.4,251.9,-999.0,'1111122,1111122,1111122' 
DISL,ioos:station:DISL:PPTA:1,2017-09-01T10:00:00Z,30.2791,-87.5561,0.0,3.96,260.2,-999.0,'1111122,1111122,1111122' 
DISL,ioos:station:DISL:PPTA:1,2017-09-01T10:30:00Z,30.2791,-87.5561,0.0,2.43,256.2,-999.0,'1111122,1111122,1111122' 
DISL,ioos:station:DISL:PPTA:1,2017-09-01T11:00:00Z,30.2791,-87.5561,0.0,2.28,250.9,-999.0,'1111122,1111122,1111122' 
DISL,ioos:station:DISL:PPTA:1,2017-09-01T11:30:00Z,30.2791,-87.5561,0.0,2.28,252.3,-999.0,'1111122,1111122,1111122' 
DISL,ioos:station:DISL:PPTA:1,2017-09-01T12:00:00Z,30.2791,-87.5561,0.0,3.39,269.3,-999.0,'1111122,1111122,1111122' 
DISL,ioos:station:DISL:PPTA:1,2017-09-01T12:30:00Z,30.2791,-87.5561,0.0,4.01,288.9,-999.0,'1111122,1111122,1111122' 
DISL,ioos:station:DISL:PPTA:1,2017-09-01T13:00:00Z,30.2791,-87.5561,0.0,1.98,282.9,-999.0,'1111122,1111122,1111122' 
DISL,ioos:station:DISL:PPTA:1,2017-09-01T13:30:00Z,30.2791,-87.5561,0.0,4.31,259.6,-999.0,'1111122,1111122,1111122' 
DISL,ioos:station:DISL:PPTA:1,2017-09-01T14:00:00Z,30.2791,-87.5561,0.0,4.29,253.4,-999.0,'1111122,1111122,1111122' 
DISL,ioos:station:DISL:PPTA:1,2017-09-01T14:30:00Z,30.2791,-87.5561,0.0,2.86,248.9,-999.0,'1111122,1111122,1111122' 
DISL,ioos:station:DISL:PPTA:1,2017-09-01T15:00:00Z,30.2791,-87.5561,0.0,3.32,247.1,-999.0,'1111122,1111122,1111122' 
DISL,ioos:station:DISL:PPTA:1,2017-09-01T15:30:00Z,30.2791,-87.5561,0.0,2.75,242.7,-999.0,'1111122,1111122,1111122' 
DISL,ioos:station:DISL:PPTA:1,2017-09-01T16:00:00Z,30.2791,-87.5561,0.0,4.12,183.5,-999.0,'1111122,1111122,1111122' 
DISL,ioos:station:DISL:PPTA:1,2017-09-01T16:30:00Z,30.2791,-87.5561,0.0,1.92,231.7,-999.0,'1111122,1111122,1111122' 
DISL,ioos:station:DISL:PPTA:1,2017-09-01T17:00:00Z,30.2791,-87.5561,0.0,2.67,235.3,-999.0,'1111122,1111122,1111122' 
DISL,ioos:station:DISL:PPTA:1,2017-09-01T17:30:00Z,30.2791,-87.5561,0.0,2.61,237.2,-999.0,'1111122,1111122,1111122' 
DISL,ioos:station:DISL:PPTA:1,2017-09-01T18:00:00Z,30.2791,-87.5561,0.0,5.19,260.2,-999.0,'1111122,1111122,1111122' 
DISL,ioos:station:DISL:PPTA:1,2017-09-01T18:30:00Z,30.2791,-87.5561,0.0,3.71,247.1,-999.0,'1111122,1111122,1111122' 
DISL,ioos:station:DISL:PPTA:1,2017-09-01T19:00:00Z,30.2791,-87.5561,0.0,2.42,233.3,-999.0,'1111122,1111122,1111122' 
DISL,ioos:station:DISL:PPTA:1,2017-09-01T19:30:00Z,30.2791,-87.5561,0.0,3.12,236.3,-999.0,'1111122,1111122,1111122' 
DISL,ioos:station:DISL:PPTA:1,2017-09-01T20:00:00Z,30.2791,-87.5561,0.0,2.73,238.4,-999.0,'1111122,1111122,1111122' 
DISL,ioos:station:DISL:PPTA:1,2017-09-01T20:30:00Z,30.2791,-87.5561,0.0,1.75,229.5,-999.0,'1111122,1111122,1111122' 
DISL,ioos:station:DISL:PPTA:1,2017-09-01T21:00:00Z,30.2791,-87.5561,0.0,2.43,193.5,-999.0,'1111122,1111122,1111122' 
DISL,ioos:station:DISL:PPTA:1,2017-09-01T21:30:00Z,30.2791,-87.5561,0.0,2.69,189.4,-999.0,'1111122,1111122,1111122' 
DISL,ioos:station:DISL:PPTA:1,2017-09-01T22:00:00Z,30.2791,-87.5561,0.0,1.95,197.8,-999.0,'1111122,1111122,1111122' 
DISL,ioos:station:DISL:PPTA:1,2017-09-01T22:30:00Z,30.2791,-87.5561,0.0,1.68,241.4,-999.0,'1111122,1111122,1111122' 
DISL,ioos:station:DISL:PPTA:1,2017-09-01T23:00:00Z,30.2791,-87.5561,0.0,2.05,233.1,-999.0,'1111122,1111122,1111122' 
DISL,ioos:station:DISL:PPTA:1,2017-09-01T23:30:00Z,30.2791,-87.5561,0.0,2.42,241.8,-999.0,'1111122,1111122,1111122' 
DISL,ioos:station:DISL:PPTA:1,2017-09-02T00:00:00Z,30.2791,-87.5561,0.0,1.55,236.6,-999.0,'1111122,1111122,1111122' 
DISL,ioos:station:DISL:PPTA:1,2017-09-02T00:30:00Z,30.2791,-87.5561,0.0,2.29,241.5,-999.0,'1111122,1111122,1111122' 
DISL,ioos:station:DISL:PPTA:1,2017-09-02T01:00:00Z,30.2791,-87.5561,0.0,2.16,238.6,-999.0,'1111122,1111122,1111122' 
DISL,ioos:station:DISL:PPTA:1,2017-09-02T01:30:00Z,30.2791,-87.5561,0.0,3.09,246.7,-999.0,'1111122,1111122,1111122' 
DISL,ioos:station:DISL:PPTA:1,2017-09-02T02:00:00Z,30.2791,-87.5561,0.0,2.69,247.2,-999.0,'1111122,1111122,1111122' 
DISL,ioos:station:DISL:PPTA:1,2017-09-02T02:30:00Z,30.2791,-87.5561,0.0,2.05,253.9,-999.0,'1111122,1111122,1111122' 
DISL,ioos:station:DISL:PPTA:1,2017-09-02T03:00:00Z,30.2791,-87.5561,0.0,1.58,237.6,-999.0,'1111122,1111122,1111122' 
DISL,ioos:station:DISL:PPTA:1,2017-09-02T03:30:00Z,30.2791,-87.5561,0.0,1.07,232.3,-999.0,'1111122,1111122,1111122' 
DISL,ioos:station:DISL:PPTA:1,2017-09-02T04:00:00Z,30.2791,-87.5561,0.0,1.54,233.2,-999.0,'1111122,1111122,1111122' 
DISL,ioos:station:DISL:PPTA:1,2017-09-02T04:30:00Z,30.2791,-87.5561,0.0,3.26,250.7,-999.0,'1111122,1111122,1111122' 
DISL,ioos:station:DISL:PPTA:1,2017-09-02T05:00:00Z,30.2791,-87.5561,0.0,2.28,245.1,-999.0,'1111122,1111122,1111122' 
DISL,ioos:station:DISL:PPTA:1,2017-09-02T05:30:00Z,30.2791,-87.5561,0.0,2.54,330.2,-999.0,'1111122,1111122,1111122' 
DISL,ioos:station:DISL:PPTA:1,2017-09-02T06:00:00Z,30.2791,-87.5561,0.0,3.25,328.7,-999.0,'1111122,1111122,1111122' 
DISL,ioos:station:DISL:PPTA:1,2017-09-02T06:30:00Z,30.2791,-87.5561,0.0,1.18,351.5,-999.0,'1111122,1111122,1111122' 
DISL,ioos:station:DISL:PPTA:1,2017-09-02T07:00:00Z,30.2791,-87.5561,0.0,2.28,191.2,-999.0,'1111122,1111122,1111122' 
DISL,ioos:station:DISL:PPTA:1,2017-09-02T07:30:00Z,30.2791,-87.5561,0.0,1.34,212.7,-999.0,'1111122,1111122,1111122' 
DISL,ioos:station:DISL:PPTA:1,2017-09-02T08:00:00Z,30.2791,-87.5561,0.0,1.46,355.7,-999.0,'1111122,1111122,1111122' 
DISL,ioos:station:DISL:PPTA:1,2017-09-02T08:30:00Z,30.2791,-87.5561,0.0,1.26,294.0,-999.0,'1111122,1111122,1111122' 
DISL,ioos:station:DISL:PPTA:1,2017-09-02T09:00:00Z,30.2791,-87.5561,0.0,1.63,279.4,-999.0,'1111122,1111122,1111122' 
DISL,ioos:station:DISL:PPTA:1,2017-09-02T09:30:00Z,30.2791,-87.5561,0.0,1.1,30.18,-999.0,'1111122,1111122,1111122' 
DISL,ioos:station:DISL:PPTA:1,2017-09-02T10:00:00Z,30.2791,-87.5561,0.0,1.62,37.85,-999.0,'1111122,1111122,1111122' 
DISL,ioos:station:DISL:PPTA:1,2017-09-02T10:30:00Z,30.2791,-87.5561,0.0,0.97,38.35,-999.0,'1111122,1111122,1111122' 
DISL,ioos:station:DISL:PPTA:1,2017-09-02T11:00:00Z,30.2791,-87.5561,0.0,0.33,352.6,-999.0,'1111122,1111122,1111122' 
DISL,ioos:station:DISL:PPTA:1,2017-09-02T11:30:00Z,30.2791,-87.5561,0.0,1.15,20.07,-999.0,'1111122,1111122,1111122' 
DISL,ioos:station:DISL:PPTA:1,2017-09-02T12:00:00Z,30.2791,-87.5561,0.0,1.3,334.3,-999.0,'1111122,1111122,1111122' 
DISL,ioos:station:DISL:PPTA:1,2017-09-02T12:30:00Z,30.2791,-87.5561,0.0,1.49,41.26,-999.0,'1111122,1111122,1111122' 
DISL,ioos:station:DISL:PPTA:1,2017-09-02T13:00:00Z,30.2791,-87.5561,0.0,2.58,55.62,-999.0,'1111122,1111122,1111122' 
DISL,ioos:station:DISL:PPTA:1,2017-09-02T13:30:00Z,30.2791,-87.5561,0.0,2.78,63.06,-999.0,'1111122,1111122,1111122' 
DISL,ioos:station:DISL:PPTA:1,2017-09-02T14:00:00Z,30.2791,-87.5561,0.0,1.54,47.79,-999.0,'1111122,1111122,1111122' 
DISL,ioos:station:DISL:PPTA:1,2017-09-02T14:30:00Z,30.2791,-87.5561,0.0,1.88,67.46,-999.0,'1111122,1111122,1111122' 
DISL,ioos:station:DISL:PPTA:1,2017-09-02T15:00:00Z,30.2791,-87.5561,0.0,2.02,69.92,-999.0,'1111122,1111122,1111122' 
DISL,ioos:station:DISL:PPTA:1,2017-09-02T15:30:00Z,30.2791,-87.5561,0.0,2.04,95.6,-999.0,'1111122,1111122,1111122' 
DISL,ioos:station:DISL:PPTA:1,2017-09-02T16:00:00Z,30.2791,-87.5561,0.0,3.06,124.3,-999.0,'1111122,1111122,1111122' 
DISL,ioos:station:DISL:PPTA:1,2017-09-02T16:30:00Z,30.2791,-87.5561,0.0,2.15,132.6,-999.0,'1111122,1111122,1111122' 
DISL,ioos:station:DISL:PPTA:1,2017-09-02T17:00:00Z,30.2791,-87.5561,0.0,2.59,141.0,-999.0,'1111122,1111122,1111122' 
DISL,ioos:station:DISL:PPTA:1,2017-09-02T17:30:00Z,30.2791,-87.5561,0.0,2.9,155.9,-999.0,'1111122,1111122,1111122' 
DISL,ioos:station:DISL:PPTA:1,2017-09-02T18:00:00Z,30.2791,-87.5561,0.0,2.39,140.2,-999.0,'1111122,1111122,1111122' 
DISL,ioos:station:DISL:PPTA:1,2017-09-02T18:30:00Z,30.2791,-87.5561,0.0,2.14,160.0,-999.0,'1111122,1111122,1111122' 
DISL,ioos:station:DISL:PPTA:1,2017-09-02T19:00:00Z,30.2791,-87.5561,0.0,2.99,314.9,-999.0,'1111122,1111122,1111122' 
DISL,ioos:station:DISL:PPTA:1,2017-09-02T19:30:00Z,30.2791,-87.5561,0.0,3.78,42.57,-999.0,'1111122,1111122,1111122' 
DISL,ioos:station:DISL:PPTA:1,2017-09-02T20:00:00Z,30.2791,-87.5561,0.0,1.86,309.4,-999.0,'1111122,1111122,1111122' 
DISL,ioos:station:DISL:PPTA:1,2017-09-02T20:30:00Z,30.2791,-87.5561,0.0,1.06,275.9,-999.0,'1111122,1111122,1111122' 
DISL,ioos:station:DISL:PPTA:1,2017-09-02T21:00:00Z,30.2791,-87.5561,0.0,1.0,14.11,-999.0,'1111122,1111122,1111122' 
DISL,ioos:station:DISL:PPTA:1,2017-09-02T21:30:00Z,30.2791,-87.5561,0.0,0.82,13.39,-999.0,'1111122,1111122,1111122' 
DISL,ioos:station:DISL:PPTA:1,2017-09-02T22:00:00Z,30.2791,-87.5561,0.0,1.49,68.82,-999.0,'1111122,1111122,1111122' 
DISL,ioos:station:DISL:PPTA:1,2017-09-02T22:30:00Z,30.2791,-87.5561,0.0,1.7,43.58,-999.0,'1111122,1111122,1111122' 
DISL,ioos:station:DISL:PPTA:1,2017-09-02T23:00:00Z,30.2791,-87.5561,0.0,1.69,69.31,-999.0,'1111122,1111122,1111122' 
DISL,ioos:station:DISL:PPTA:1,2017-09-02T23:30:00Z,30.2791,-87.5561,0.0,0.51,97.7,-999.0,'1111122,1111122,1111122' 
DISL,ioos:station:DISL:PPTA:1,2017-09-03T00:00:00Z,30.2791,-87.5561,0.0,0.72,121.6,-999.0,'1111122,1111122,1111122' 
DISL,ioos:station:DISL:PPTA:1,2017-09-03T00:30:00Z,30.2791,-87.5561,0.0,1.04,122.0,-999.0,'1111122,1111122,1111122' 
DISL,ioos:station:DISL:PPTA:1,2017-09-03T01:00:00Z,30.2791,-87.5561,0.0,1.11,124.8,-999.0,'1111122,1111122,1111122' 
DISL,ioos:station:DISL:PPTA:1,2017-09-03T01:30:00Z,30.2791,-87.5561,0.0,2.47,52.03,-999.0,'1111122,1111122,1111122' 
DISL,ioos:station:DISL:PPTA:1,2017-09-03T02:00:00Z,30.2791,-87.5561,0.0,1.64,42.07,-999.0,'1111122,1111122,1111122' 
DISL,ioos:station:DISL:PPTA:1,2017-09-03T02:30:00Z,30.2791,-87.5561,0.0,0.77,30.24,-999.0,'1111122,1111122,1111122' 
DISL,ioos:station:DISL:PPTA:1,2017-09-03T03:00:00Z,30.2791,-87.5561,0.0,1.93,322.0,-999.0,'1111122,1111122,1111122' 
DISL,ioos:station:DISL:PPTA:1,2017-09-03T03:30:00Z,30.2791,-87.5561,0.0,0.83,347.4,-999.0,'1111122,1111122,1111122' 
DISL,ioos:station:DISL:PPTA:1,2017-09-03T04:00:00Z,30.2791,-87.5561,0.0,1.15,309.4,-999.0,'1111122,1111122,1111122' 
DISL,ioos:station:DISL:PPTA:1,2017-09-03T04:30:00Z,30.2791,-87.5561,0.0,0.69,356.9,-999.0,'1111122,1111122,1111122' 
DISL,ioos:station:DISL:PPTA:1,2017-09-03T05:00:00Z,30.2791,-87.5561,0.0,1.86,27.41,-999.0,'1111122,1111122,1111122' 
DISL,ioos:station:DISL:PPTA:1,2017-09-03T05:30:00Z,30.2791,-87.5561,0.0,1.59,343.4,-999.0,'1111122,1111122,1111122' 
DISL,ioos:station:DISL:PPTA:1,2017-09-03T06:00:00Z,30.2791,-87.5561,0.0,1.45,348.7,-999.0,'1111122,1111122,1111122' 
DISL,ioos:station:DISL:PPTA:1,2017-09-03T06:30:00Z,30.2791,-87.5561,0.0,1.63,339.7,-999.0,'1111122,1111122,1111122' 
DISL,ioos:station:DISL:PPTA:1,2017-09-03T07:00:00Z,30.2791,-87.5561,0.0,1.93,47.24,-999.0,'1111122,1111122,1111122' 
DISL,ioos:station:DISL:PPTA:1,2017-09-03T07:30:00Z,30.2791,-87.5561,0.0,2.56,54.8,-999.0,'1111122,1111122,1111122' 
DISL,ioos:station:DISL:PPTA:1,2017-09-03T08:00:00Z,30.2791,-87.5561,0.0,3.07,65.79,-999.0,'1111122,1111122,1111122' 
DISL,ioos:station:DISL:PPTA:1,2017-09-03T08:30:00Z,30.2791,-87.5561,0.0,2.57,62.33,-999.0,'1111122,1111122,1111122' 
DISL,ioos:station:DISL:PPTA:1,2017-09-03T09:00:00Z,30.2791,-87.5561,0.0,2.14,79.24,-999.0,'1111122,1111122,1111122' 
DISL,ioos:station:DISL:PPTA:1,2017-09-03T09:30:00Z,30.2791,-87.5561,0.0,1.62,51.38,-999.0,'1111122,1111122,1111122' 
DISL,ioos:station:DISL:PPTA:1,2017-09-03T10:00:00Z,30.2791,-87.5561,0.0,1.49,350.4,-999.0,'1111122,1111122,1111122' 
DISL,ioos:station:DISL:PPTA:1,2017-09-03T10:30:00Z,30.2791,-87.5561,0.0,2.11,17.69,-999.0,'1111122,1111122,1111122' 
DISL,ioos:station:DISL:PPTA:1,2017-09-03T11:00:00Z,30.2791,-87.5561,0.0,2.11,5.03,-999.0,'1111122,1111122,1111122' 
DISL,ioos:station:DISL:PPTA:1,2017-09-03T11:30:00Z,30.2791,-87.5561,0.0,2.02,35.52,-999.0,'1111122,1111122,1111122' 
DISL,ioos:station:DISL:PPTA:1,2017-09-03T12:00:00Z,30.2791,-87.5561,0.0,2.39,9.6,-999.0,'1111122,1111122,1111122' 
DISL,ioos:station:DISL:PPTA:1,2017-09-03T12:30:00Z,30.2791,-87.5561,0.0,2.49,20.72,-999.0,'1111122,1111122,1111122' 
DISL,ioos:station:DISL:PPTA:1,2017-09-03T13:00:00Z,30.2791,-87.5561,0.0,1.56,62.91,-999.0,'1111122,1111122,1111122' 
DISL,ioos:station:DISL:PPTA:1,2017-09-03T13:30:00Z,30.2791,-87.5561,0.0,1.76,24.01,-999.0,'1111122,1111122,1111122' 
DISL,ioos:station:DISL:PPTA:1,2017-09-03T14:00:00Z,30.2791,-87.5561,0.0,2.12,22.99,-999.0,'1111122,1111122,1111122' 
DISL,ioos:station:DISL:PPTA:1,2017-09-03T14:30:00Z,30.2791,-87.5561,0.0,1.79,0.917,-999.0,'1111122,1111122,1111122' 
DISL,ioos:station:DISL:PPTA:1,2017-09-03T15:00:00Z,30.2791,-87.5561,0.0,1.58,10.64,-999.0,'1111122,1111122,1111122' 
DISL,ioos:station:DISL:PPTA:1,2017-09-03T15:30:00Z,30.2791,-87.5561,0.0,1.1,29.03,-999.0,'1111122,1111122,1111122' 
DISL,ioos:station:DISL:PPTA:1,2017-09-03T16:00:00Z,30.2791,-87.5561,0.0,1.33,84.7,-999.0,'1111122,1111122,1111122' 
DISL,ioos:station:DISL:PPTA:1,2017-09-03T16:30:00Z,30.2791,-87.5561,0.0,0.71,167.1,-999.0,'1111122,1111122,1111122' 
DISL,ioos:station:DISL:PPTA:1,2017-09-03T17:00:00Z,30.2791,-87.5561,0.0,3.06,258.6,-999.0,'1111122,1111122,1111122' 
DISL,ioos:station:DISL:PPTA:1,2017-09-03T17:30:00Z,30.2791,-87.5561,0.0,1.43,199.8,-999.0,'1111122,1111122,1111122' 
DISL,ioos:station:DISL:PPTA:1,2017-09-03T18:00:00Z,30.2791,-87.5561,0.0,1.92,177.7,-999.0,'1111122,1111122,1111122' 
DISL,ioos:station:DISL:PPTA:1,2017-09-03T18:30:00Z,30.2791,-87.5561,0.0,2.28,176.1,-999.0,'1111122,1111122,1111122' 
DISL,ioos:station:DISL:PPTA:1,2017-09-03T19:00:00Z,30.2791,-87.5561,0.0,2.62,181.7,-999.0,'1111122,1111122,1111122' 
DISL,ioos:station:DISL:PPTA:1,2017-09-03T19:30:00Z,30.2791,-87.5561,0.0,2.33,173.2,-999.0,'1111122,1111122,1111122' 
DISL,ioos:station:DISL:PPTA:1,2017-09-03T20:00:00Z,30.2791,-87.5561,0.0,2.18,179.2,-999.0,'1111122,1111122,1111122' 
DISL,ioos:station:DISL:PPTA:1,2017-09-03T20:30:00Z,30.2791,-87.5561,0.0,3.46,184.1,-999.0,'1111122,1111122,1111122' 
DISL,ioos:station:DISL:PPTA:1,2017-09-03T21:00:00Z,30.2791,-87.5561,0.0,2.55,187.4,-999.0,'1111122,1111122,1111122' 
DISL,ioos:station:DISL:PPTA:1,2017-09-03T21:30:00Z,30.2791,-87.5561,0.0,2.65,184.1,-999.0,'1111122,1111122,1111122' 
DISL,ioos:station:DISL:PPTA:1,2017-09-03T22:00:00Z,30.2791,-87.5561,0.0,0.75,304.6,-999.0,'1111122,1111122,1111122' 
DISL,ioos:station:DISL:PPTA:1,2017-09-03T22:30:00Z,30.2791,-87.5561,0.0,1.39,275.6,-999.0,'1111122,1111122,1111122' 
DISL,ioos:station:DISL:PPTA:1,2017-09-03T23:00:00Z,30.2791,-87.5561,0.0,2.34,188.2,-999.0,'1111122,1111122,1111122' 
DISL,ioos:station:DISL:PPTA:1,2017-09-03T23:30:00Z,30.2791,-87.5561,0.0,1.63,191.5,-999.0,'1111122,1111122,1111122' 
DISL,ioos:station:DISL:PPTA:1,2017-09-04T00:00:00Z,30.2791,-87.5561,0.0,1.76,186.2,-999.0,'1111122,1111122,1111122' 
DISL,ioos:station:DISL:PPTA:1,2017-09-04T00:30:00Z,30.2791,-87.5561,0.0,1.64,186.3,-999.0,'1111122,1111122,1111122' 
DISL,ioos:station:DISL:PPTA:1,2017-09-04T01:00:00Z,30.2791,-87.5561,0.0,1.0,253.0,-999.0,'1111122,1111122,1111122' 
DISL,ioos:station:DISL:PPTA:1,2017-09-04T01:30:00Z,30.2791,-87.5561,0.0,1.02,11.53,-999.0,'1111122,1111122,1111122' 
DISL,ioos:station:DISL:PPTA:1,2017-09-04T02:00:00Z,30.2791,-87.5561,0.0,2.01,34.02,-999.0,'1111122,1111122,1111122' 
DISL,ioos:station:DISL:PPTA:1,2017-09-04T02:30:00Z,30.2791,-87.5561,0.0,3.89,79.11,-999.0,'1111122,1111122,1111122' 
DISL,ioos:station:DISL:PPTA:1,2017-09-04T03:00:00Z,30.2791,-87.5561,0.0,3.29,127.1,-999.0,'1111122,1111122,1111122' 
DISL,ioos:station:DISL:PPTA:1,2017-09-04T03:30:00Z,30.2791,-87.5561,0.0,3.23,111.6,-999.0,'1111122,1111122,1111122' 
DISL,ioos:station:DISL:PPTA:1,2017-09-04T04:00:00Z,30.2791,-87.5561,0.0,2.64,67.91,-999.0,'1111122,1111122,1111122' 
DISL,ioos:station:DISL:PPTA:1,2017-09-04T04:30:00Z,30.2791,-87.5561,0.0,1.63,50.17,-999.0,'1111122,1111122,1111122' 
DISL,ioos:station:DISL:PPTA:1,2017-09-04T05:00:00Z,30.2791,-87.5561,0.0,1.35,58.14,-999.0,'1111122,1111122,1111122' 
DISL,ioos:station:DISL:PPTA:1,2017-09-04T05:30:00Z,30.2791,-87.5561,0.0,0.6,34.74,-999.0,'1111122,1111122,1111122' 
DISL,ioos:station:DISL:PPTA:1,2017-09-04T06:00:00Z,30.2791,-87.5561,0.0,0.71,80.8,-999.0,'1111122,1111122,1111122' 
DISL,ioos:station:DISL:PPTA:1,2017-09-04T06:30:00Z,30.2791,-87.5561,0.0,1.19,72.66,-999.0,'1111122,1111122,1111122' 
DISL,ioos:station:DISL:PPTA:1,2017-09-04T07:00:00Z,30.2791,-87.5561,0.0,0.89,302.8,-999.0,'1111122,1111122,1111122' 
DISL,ioos:station:DISL:PPTA:1,2017-09-04T07:30:00Z,30.2791,-87.5561,0.0,0.67,240.7,-999.0,'1111122,1111122,1111122' 
DISL,ioos:station:DISL:PPTA:1,2017-09-04T08:00:00Z,30.2791,-87.5561,0.0,1.28,347.7,-999.0,'1111122,1111122,1111122' 
DISL,ioos:station:DISL:PPTA:1,2017-09-04T08:30:00Z,30.2791,-87.5561,0.0,1.31,350.3,-999.0,'1111122,1111122,1111122' 
DISL,ioos:station:DISL:PPTA:1,2017-09-04T09:00:00Z,30.2791,-87.5561,0.0,1.74,9.6,-999.0,'1111122,1111122,1111122' 
DISL,ioos:station:DISL:PPTA:1,2017-09-04T09:30:00Z,30.2791,-87.5561,0.0,1.55,5.864,-999.0,'1111122,1111122,1111122' 
DISL,ioos:station:DISL:PPTA:1,2017-09-04T10:00:00Z,30.2791,-87.5561,0.0,1.51,24.71,-999.0,'1111122,1111122,1111122' 
DISL,ioos:station:DISL:PPTA:1,2017-09-04T10:30:00Z,30.2791,-87.5561,0.0,2.24,10.26,-999.0,'1111122,1111122,1111122' 
DISL,ioos:station:DISL:PPTA:1,2017-09-04T11:00:00Z,30.2791,-87.5561,0.0,1.34,6.139,-999.0,'1111122,1111122,1111122' 
DISL,ioos:station:DISL:PPTA:1,2017-09-04T11:30:00Z,30.2791,-87.5561,0.0,1.45,3.972,-999.0,'1111122,1111122,1111122' 
DISL,ioos:station:DISL:PPTA:1,2017-09-04T12:00:00Z,30.2791,-87.5561,0.0,2.51,19.73,-999.0,'1111122,1111122,1111122' 
DISL,ioos:station:DISL:PPTA:1,2017-09-04T12:30:00Z,30.2791,-87.5561,0.0,2.26,26.08,-999.0,'1111122,1111122,1111122' 
DISL,ioos:station:DISL:PPTA:1,2017-09-04T13:00:00Z,30.2791,-87.5561,0.0,2.53,28.59,-999.0,'1111122,1111122,1111122' 
DISL,ioos:station:DISL:PPTA:1,2017-09-04T13:30:00Z,30.2791,-87.5561,0.0,2.12,35.6,-999.0,'1111122,1111122,1111122' 
DISL,ioos:station:DISL:PPTA:1,2017-09-04T14:00:00Z,30.2791,-87.5561,0.0,1.85,50.24,-999.0,'1111122,1111122,1111122' 
DISL,ioos:station:DISL:PPTA:1,2017-09-04T14:30:00Z,30.2791,-87.5561,0.0,1.61,23.4,-999.0,'1111122,1111122,1111122' 
DISL,ioos:station:DISL:PPTA:1,2017-09-04T15:00:00Z,30.2791,-87.5561,0.0,1.83,66.99,-999.0,'1111122,1111122,1111122' 
DISL,ioos:station:DISL:PPTA:1,2017-09-04T15:30:00Z,30.2791,-87.5561,0.0,1.58,76.87,-999.0,'1111122,1111122,1111122' 
DISL,ioos:station:DISL:PPTA:1,2017-09-04T16:00:00Z,30.2791,-87.5561,0.0,1.53,90.8,-999.0,'1111122,1111122,1111122' 
DISL,ioos:station:DISL:PPTA:1,2017-09-04T16:30:00Z,30.2791,-87.5561,0.0,2.69,141.7,-999.0,'1111122,1111122,1111122' 
DISL,ioos:station:DISL:PPTA:1,2017-09-04T17:00:00Z,30.2791,-87.5561,0.0,2.44,148.7,-999.0,'1111122,1111122,1111122' 
DISL,ioos:station:DISL:PPTA:1,2017-09-04T17:30:00Z,30.2791,-87.5561,0.0,2.44,156.8,-999.0,'1111122,1111122,1111122' 
DISL,ioos:station:DISL:PPTA:1,2017-09-04T18:00:00Z,30.2791,-87.5561,0.0,2.61,168.5,-999.0,'1111122,1111122,1111122' 
DISL,ioos:station:DISL:PPTA:1,2017-09-04T18:30:00Z,30.2791,-87.5561,0.0,2.56,180.5,-999.0,'1111122,1111122,1111122' 
DISL,ioos:station:DISL:PPTA:1,2017-09-04T19:00:00Z,30.2791,-87.5561,0.0,2.46,182.6,-999.0,'1111122,1111122,1111122' 
DISL,ioos:station:DISL:PPTA:1,2017-09-04T19:30:00Z,30.2791,-87.5561,0.0,2.5,179.8,-999.0,'1111122,1111122,1111122' 
DISL,ioos:station:DISL:PPTA:1,2017-09-04T20:00:00Z,30.2791,-87.5561,0.0,3.1,184.8,-999.0,'1111122,1111122,1111122' 
DISL,ioos:station:DISL:PPTA:1,2017-09-04T20:30:00Z,30.2791,-87.5561,0.0,3.62,185.1,-999.0,'1111122,1111122,1111122' 
DISL,ioos:station:DISL:PPTA:1,2017-09-04T21:00:00Z,30.2791,-87.5561,0.0,3.31,185.1,-999.0,'1111122,1111122,1111122' 
DISL,ioos:station:DISL:PPTA:1,2017-09-04T21:30:00Z,30.2791,-87.5561,0.0,3.29,187.8,-999.0,'1111122,1111122,1111122' 
DISL,ioos:station:DISL:PPTA:1,2017-09-04T22:00:00Z,30.2791,-87.5561,0.0,2.73,189.7,-999.0,'1111122,1111122,1111122' 
DISL,ioos:station:DISL:PPTA:1,2017-09-04T22:30:00Z,30.2791,-87.5561,0.0,0.97,211.7,-999.0,'1111122,1111122,1111122' 
DISL,ioos:station:DISL:PPTA:1,2017-09-04T23:00:00Z,30.2791,-87.5561,0.0,1.39,208.6,-999.0,'1111122,1111122,1111122' 
DISL,ioos:station:DISL:PPTA:1,2017-09-04T23:30:00Z,30.2791,-87.5561,0.0,1.25,193.4,-999.0,'1111122,1111122,1111122' 
DISL,ioos:station:DISL:PPTA:1,2017-09-05T00:00:00Z,30.2791,-87.5561,0.0,1.27,192.5,-999.0,'1111122,1111122,1111122' 
DISL,ioos:station:DISL:PPTA:1,2017-09-05T00:30:00Z,30.2791,-87.5561,0.0,1.01,241.8,-999.0,'1111122,1111122,1111122' 
DISL,ioos:station:DISL:PPTA:1,2017-09-05T01:00:00Z,30.2791,-87.5561,0.0,0.4,228.1,-999.0,'1111122,1111122,1111122' 
DISL,ioos:station:DISL:PPTA:1,2017-09-05T01:30:00Z,30.2791,-87.5561,0.0,1.19,189.4,-999.0,'1111122,1111122,1111122' 
DISL,ioos:station:DISL:PPTA:1,2017-09-05T02:00:00Z,30.2791,-87.5561,0.0,0.97,201.0,-999.0,'1111122,1111122,1111122' 
DISL,ioos:station:DISL:PPTA:1,2017-09-05T02:30:00Z,30.2791,-87.5561,0.0,0.97,208.5,-999.0,'1111122,1111122,1111122' 
DISL,ioos:station:DISL:PPTA:1,2017-09-05T03:00:00Z,30.2791,-87.5561,0.0,1.72,189.4,-999.0,'1111122,1111122,1111122' 
DISL,ioos:station:DISL:PPTA:1,2017-09-05T03:30:00Z,30.2791,-87.5561,0.0,0.79,202.2,-999.0,'1111122,1111122,1111122' 
DISL,ioos:station:DISL:PPTA:1,2017-09-05T04:00:00Z,30.2791,-87.5561,0.0,1.25,212.6,-999.0,'1111122,1111122,1111122' 
DISL,ioos:station:DISL:PPTA:1,2017-09-05T04:30:00Z,30.2791,-87.5561,0.0,1.04,244.3,-999.0,'1111122,1111122,1111122' 
DISL,ioos:station:DISL:PPTA:1,2017-09-05T05:00:00Z,30.2791,-87.5561,0.0,1.38,247.5,-999.0,'1111122,1111122,1111122' 
DISL,ioos:station:DISL:PPTA:1,2017-09-05T05:30:00Z,30.2791,-87.5561,0.0,0.76,268.9,-999.0,'1111122,1111122,1111122' 